Regional Weather Roundup
Issued by NWS Austin/San Antonio, TX

Home | Current Version | Previous Version | Text Only | Print | Product List | Glossary On
Versions: 1 2 3 4 5 6 7 8 9 10 11 12 13 14 15 16 17 18 19 20 21 22 23 24 25 26 27 28 29 30 31 32 33 34 35 36 37 38 39 40 41 42 43 44 45 46 47 48 49 50
000
ASUS44 KEWX 211702
RWREWX
SOUTH TEXAS REGIONAL WEATHER ROUNDUP
NATIONAL WEATHER SERVICE AUSTIN/SAN ANTONIO TX
1200 PM CDT MON OCT 21 2019

NOTE: "FAIR" INDICATED FEW OR NO CLOUDS BELOW 12,000 FEET WITH NO
SIGNIFICANT WEATHER AND/OR OBSTRUCTIONS TO VISIBILITY.

* - THESE STATIONS ARE NOT NWS OR FAA STATIONS...AND ARE NOT SUBJECT
    TO NWS AND FAA QUALITY CONTROL.

TXZ171-172-183>190-211800-
TEXAS HILL COUNTRY AND EDWARDS PLATEAU

CITY           SKY/WX    TMP DP  RH WIND       PRES   REMARKS
JUNCTION       SUNNY     69  37  30 N13       30.00S
*LLANO         SUNNY     70  34  26 NE7       30.00S
BURNET         SUNNY     69  32  25 NE13      29.98R
*HORSESHOE BAY SUNNY     70  36  28 NE9       29.97F
*KERRVILLE     SUNNY     72  33  23 N8G16     29.97F
*FREDERICKSBRG SUNNY     68  34  27 N9        29.98R
*ROCKSPRINGS   SUNNY     68  32  26 N9        30.04S
*BOERNE        SUNNY     70  34  26 NE10G20   29.96R
*CASTROVILLE   SUNNY     78  34  20 N13       29.95R
HONDO          SUNNY     78  37  22 NE10      29.94R
*UVALDE        SUNNY     78  35  21 E12       29.95R
DEL RIO        SUNNY     78  28  16 VRB6      29.96F
LAUGHLIN AFB   NOT AVBL
SPOFFORD       SUNNY     80  28  14 CALM      29.89F
*EAGLE PASS    SUNNY     79  32  18 N10G18    29.95F
CARRIZO SPRGS  SUNNY     79  43  27 NE6       29.92S
*FAITH RANCH   SUNNY     81  48  32 N13G20    29.92R
$$

TXZ173-191>194-202-209-217>225-228-211800-
CENTRAL AND SOUTH CENTRAL TEXAS

CITY           SKY/WX    TMP DP  RH WIND       PRES   REMARKS
GEORGETOWN     SUNNY     72  37  28 N14       29.96F
AUSTIN/BERGSTM MOSUNNY   77  40  26 NE18      29.92S
AUSTIN/MABRY   SUNNY     75  35  23 NE8G18    29.94S
*AUSTIN/EXEC   SUNNY     72  39  30 NE18      29.95S
*LAGO VISTA    SUNNY     69  40  34 NE13G20   29.95S
SAN MARCOS     SUNNY     75  41  29 N20       29.94R
NEW BRAUNFELS  SUNNY     75  39  27 NE18G26   29.92R
RANDOLPH AFB   SUNNY     74  40  28 N16G23    29.93R
SEGUIN         SUNNY     74  40  29 NE18      29.96R
KELLY FIELD    SUNNY     77  37  23 NE14G23   29.91R
SAN ANTONIO    MOSUNNY   74  37  26 N18       29.94R
STINSON FIELD  SUNNY     76  41  28 NE12G22   29.91R
PLEASANTON     SUNNY     76  37  24 N15G24    29.92R
*LA GRANGE     SUNNY     74  45  34 N13G21    29.89S
*GIDDINGS      SUNNY     76  43  31 N8        29.93R
*GONZALES      SUNNY     75  45  34 N12       29.91R
$$

TXZ163>164-176>182-195>201-210>213-226-227-235-211800-
SOUTHEAST TEXAS

CITY           SKY/WX    TMP DP  RH WIND       PRES   REMARKS
COLLEGE STN    SUNNY     76  44  32 N14       29.91R
*BRYAN         SUNNY     74  45  35 N12G17    29.93R
*CALDWELL      SUNNY     72  40  31 N13G20    29.93R
*CROCKETT      SUNNY     70  50  49 NE12G17   29.93R
*BRENHAM       SUNNY     73  50  44 NE10G17   29.91R
HUNTSVILLE     SUNNY     72  51  47 VRB6      29.90R
CONROE         SUNNY     72  60  66 NE8       29.88S
HOUSTON BUSH   MOSUNNY   73  60  63 N13       29.87S
HOUSTON HOBBY  PTSUNNY   72  62  71 N9        29.88R
*HOUSTON SW AP FAIR      70  67  88 N3        29.89R
PEARLAND       FAIR      71  63  75 N8        29.89R
HOUSTON HOOKS  FAIR      72  57  59 N8G18     29.88S
ELLINGTON FLD  NOT AVBL
SUGAR LAND     FAIR      74  62  66 N13G22    29.87R
*HOUSTON EXEC  PTSUNNY   72  61  68 N15       29.90R
*CLEVELAND MUN PTSUNNY   69  66  89 N3        29.89R
*WHARTON       MOSUNNY   74  55  51 N9G22     29.89R
*COLUMBUS      PTSUNNY   74  52  44 N9G16     29.90S
*EAGLE LAKE    CLOUDY    74  61  62 NE17G23   29.88
$$

TXZ214>216-236>238-211800-
THE UPPER TEXAS COAST

CITY           SKY/WX    TMP DP  RH WIND       PRES   REMARKS
*ORANGE        RAIN      68  68 100 NE5       29.85F
PORT ARTHUR    PTSUNNY   70  68  93 N5        29.84S
GALVESTON      CLOUDY    71  68  90 N6        29.87R
ANGLETON       PTSUNNY   69  66  90 N8        29.86S
*BAY CITY      MOSUNNY   71  70  95 N8        29.86R
PALACIOS       MOSUNNY   73  65  75 N16       29.85S
$$

TXZ229>234-239>247-211800-
TEXAS COASTAL BEND AND RIO GRANDE PLAINS

CITY           SKY/WX    TMP DP  RH WIND       PRES   REMARKS
VICTORIA       SUNNY     76  61  59 NE14      29.87F
*BEEVILLE      CLOUDY    80  54  39 NE16G24   29.86F
ROCKPORT       PTSUNNY   79  65  62 N15G21    29.84R
*PORT ARANSAS  PTSUNNY   75  67  75 N22       29.85S
*PORT LAVACA   MOSUNNY   78  68  70 N13G20    29.87R
*INGLESIDE     MOSUNNY   78  67  69 NE17G25   29.84S
CORPUS CHRISTI PTSUNNY   78  65  63 N20       29.84R
CORPUS NAS     CLOUDY    75  71  87 N21G26    29.83S
*ROBSTOWN      SUNNY     82  64  55 NE16G24   29.84R
ALICE          SUNNY     86  61  42 N18G25    29.84R
KINGSVILLE NAS CLOUDY    83  68  60 N15G24    29.83R
COTULLA        SUNNY     81  47  30 NE10G23   29.91R
LAREDO         SUNNY     85  58  39 N14       29.87R
$$

TXZ248>255-211800-
DEEP SOUTH TEXAS

CITY           SKY/WX    TMP DP  RH WIND       PRES   REMARKS
BROWNSVILLE    FAIR      88  79  74 S15G21    29.80R HX 103
PORT ISABEL    PTSUNNY   87  78  74 W9        29.80S HX 100
HARLINGEN      PTSUNNY   87  79  76 SW9       29.80R HX 101
*HEBBRONVILLE  PTSUNNY   83  69  62 N6G23     29.86R
MCALLEN        MOSUNNY   87  76  69 N9        29.81S HX  97
*WESLACO       MOSUNNY   88  76  68 CALM      29.80S HX  98
FALFURRIAS     SUNNY     89  74  60 N3        29.81F HX  98
EDINBURG       CLOUDY    81  75  81 NW8       29.82S
*ZAPATA        NOT AVBL
$$

TXZ213>215-236>238-242>244-246-247-251-254-255-211800-
CMAN STATIONS

STATION/POSITION TIME  TEMP    WIND        PRES    WAVE
                       AIR SEA DIR/SP/G            HT/PER
                 (UTC) (F)     (DEG/KT/KT) (MB)    (FT/S)
SABINE PASS      1624   68 78   30/ 10/ 13 1012.1
SEA RIM ST PARK  1600   68      10/ 10/ 11 1010.2
NORTH JETTY/GLS  1624   69 76   70/  6/  7 1009.8
EAGLE POINT      1624   69 76   10/  8/ 10 1010.4
MORGANS POINT    1630   69 78  350/  8/ 10 1011.0
PORT O`CONNOR    1624   71 79   10/ 18/ 21 1010.8
PORT ARANSAS     1600   72 79   10/ 18/ 20 1009.8
MALAQUITE BEACH  1624   75 81  350/ 19/ 24 1009.6
BAFFIN BAY       1624   80 80  310/  9/ 11 1009.9
PORT ISABEL      1624   85 81  210/  8/ 12 1009.4
$$



USA.gov is the U.S. government's official web portal to all federal, state and local government web resources and services.